Location: *
(31.2983°S, 151.4094°E)
Time: 13:24:43
(UTC+00:00)

Cosmos 1513 Rocket - Pass Details

Date: 25 August 2019
Orbit: 938 x 1009 km, 82.9° (Epoch: 21 September)

Event Time Altitude Azimuth Distance (km) Brightness Sun altitude
Rises 18:14:36 0° 356° (N) 3,594 7.4 -27.2°
Reaches altitude 10° 18:17:02 10° 356° (N) 2,663 6.7 -26.7°
Maximum altitude 18:23:09 90° 156° (SSE) 969 4.4 -25.4°
Drops below altitude 10° 18:29:26 10° 174° (S) 2,738 6.9 -24.0°
Sets 18:31:59 0° 174° (S) 3,703 7.6 -23.5°
